Flag for Grenada Weather past 2 weeks in Saint George's, Grenada

Now
79 °F

Passing clouds.


Feels Like: 82 °F
Forecast: 74 / 80 °F
Wind: 8 mph from East

Location: Point Salines Airport

Current Time: May 25, 2015 at 10:47:20 PM

Latest Report: May 25, 2015 at 10:00 PM


Visibility: N/A

Pressure: 29.92 "Hg

Humidity: 79%

Dew point: 72 °F

Location of Saint George'sLocation

Historic Weather in Saint George's — Graph

°F

Saint George's temperature yesterday

Maximum temperature yesterday: 88 °F (at 12:00 PM)
Minimum temperature yesterday: 79 °F (at 2:00 AM)
Average temperature yesterday: 82 °F

Past Weeks' High & Low Weather Summary

 TemperatureHumidityPressure
High88 °F (May 11, 1:00 PM)100% (May 12, 7:00 AM)30.07 "Hg (May 12, 7:00 AM)
Low75 °F (May 12, 7:00 AM)59% (May 24, 1:00 PM)29.89 "Hg (May 20, 3:00 PM)
Average82 °F78%29.97 "Hg
* Reported May 10 10:00 PM — May 25 10:00 PM, Saint George's, Weather by CustomWeather, © 2015

Note: Actual official high and low records may vary slightly from our data, if they occured in-between our weather recording intervals... More about our weather records

Advertising

Saint George's weather history for previous 24 hours

 ConditionsComfort  
Time TempWeatherWind HumidityBarometerVisibility
10:00 PM
Mon, May 25
79 °FPassing clouds.8 mph79%29.92 "HgN/A
9:00 PM79 °FPassing clouds.8 mph79%29.98 "HgN/A
8:00 PM81 °FPassing clouds.8 mph74%29.95 "HgN/A
7:00 PM81 °FPassing clouds.8 mph74%29.95 "HgN/A
5:00 PM82 °FScattered clouds.12 mph74%29.92 "HgN/A
4:00 PM82 °FScattered clouds.13 mph79%29.92 "HgN/A
3:00 PM82 °FBroken clouds.16 mph79%29.92 "HgN/A
2:00 PM82 °FSprinkles. Partly sunny.9 mph79%29.95 "Hg5 mi
1:00 PM79 °FBroken clouds.9 mph94%29.98 "HgN/A
12:00 PM84 °FPartly sunny.12 mph79%29.98 "HgN/A
11:00 AM84 °FSprinkles. Partly sunny.13 mph79%30.01 "HgN/A
10:00 AM84 °FSprinkles. Scattered clouds.12 mph79%30.01 "HgN/A
9:00 AM84 °FPassing clouds.12 mph79%30.01 "HgN/A
8:00 AM84 °FPassing clouds.9 mph74%29.98 "HgN/A
7:00 AM81 °FSprinkles. Scattered clouds.12 mph89%29.98 "HgN/A
6:00 AM81 °FScattered clouds.12 mph84%29.95 "HgN/A
5:00 AM81 °FPassing clouds.7 mph84%29.95 "HgN/A
10:00 PM
Sun, May 24
81 °FPassing clouds.7 mph79%29.98 "HgN/A
Weather by CustomWeather, © 2015

See weather overviewHow to use our weather pages